This is the latest recevied weather packets stored in our database for station/object K4DNM. If no packets are shown the sender has not sent any weather packets the latest 1 day(s).
| Time | Temp. | Humidity | Pressure | Rain* | Wind** | Luminosity | Snow |
|---|---|---|---|---|---|---|---|
| 1777993179 | 22.78° C | 59% | 1016.4 hPa | 0 mm | 1.79 m/s, 162° | 809 W/m² | - |
| 1777992817 | 23.33° C | 58% | 1016.4 hPa | 0 mm | 1.34 m/s, 170° | 793 W/m² | - |
| 1777992574 | 22.78° C | 60% | 1016.4 hPa | 0 mm | 1.34 m/s, 227° | 780 W/m² | - |
| 1777992209 | 22.78° C | 60% | 1016.4 hPa | 0 mm | 1.79 m/s, 278° | 766 W/m² | - |
| 1777991906 | 22.22° C | 60% | 1016.5 hPa | 0 mm | 0.89 m/s, 300° | 752 W/m² | - |
| 1777991606 | 22.22° C | 61% | 1016.5 hPa | 0 mm | 1.34 m/s, 315° | 733 W/m² | - |
| 1777991305 | 22.22° C | 62% | 1016.5 hPa | 0 mm | 1.79 m/s, 278° | 726 W/m² | - |
| 1777991005 | 22.22° C | 63% | 1016.4 hPa | 0 mm | 1.79 m/s, 143° | 708 W/m² | - |
| 1777990766 | 22.22° C | 63% | 1016.4 hPa | 0 mm | 1.34 m/s, 231° | 692 W/m² | - |
| 1777990406 | 22.22° C | 62% | 1016.4 hPa | 0 mm | 0.89 m/s, 107° | 676 W/m² | - |
| 1777990106 | 22.22° C | 62% | 1016.4 hPa | 0 mm | 0.89 m/s, 126° | 660 W/m² | - |
| 1777989806 | 22.22° C | 62% | 1016.4 hPa | 0 mm | 0.89 m/s, 228° | 645 W/m² | - |
| 1777989504 | 21.67° C | 63% | 1016.4 hPa | 0 mm | 0.89 m/s, 303° | 623 W/m² | - |
| 1777989205 | 21.11° C | 64% | 1016.3 hPa | 0 mm | 1.34 m/s, 121° | 584 W/m² | - |
| 1777988903 | 21.11° C | 65% | 1016.3 hPa | 0 mm | 1.34 m/s, 207° | 575 W/m² | - |
| 1777988605 | 21.11° C | 65% | 1016.4 hPa | 0 mm | 0.89 m/s, 42° | 575 W/m² | - |
| 1777988298 | 20.56° C | 66% | 1016.4 hPa | 0 mm | 0.89 m/s, 297° | 568 W/m² | - |
| 1777987997 | 20.56° C | 66% | 1016.4 hPa | 0 mm | 0.89 m/s, 198° | 533 W/m² | - |
| 1777987698 | 20.56° C | 66% | 1016.4 hPa | 0 mm | 0.89 m/s, 164° | 463 W/m² | - |
| 1777987398 | 20.56° C | 68% | 1016.4 hPa | 0 mm | 0.89 m/s, 155° | 444 W/m² | - |
| 1777987158 | 20° C | 68% | 1016.4 hPa | 0 mm | 0.89 m/s, 180° | 475 W/m² | - |
| 1777986859 | 19.44° C | 68% | 1016.5 hPa | 0 mm | 0.89 m/s, 199° | 474 W/m² | - |
| 1777986498 | 19.44° C | 69% | 1016.6 hPa | 0 mm | 0.89 m/s, 226° | 452 W/m² | - |
| 1777986198 | 18.89° C | 69% | 1016.6 hPa | 0 mm | 0.89 m/s, 103° | 422 W/m² | - |
| 1777985899 | 18.89° C | 70% | 1016.6 hPa | 0 mm | 0.89 m/s, 185° | 408 W/m² | - |
* Rain latest hour (hover to see other rain measurements)
** Current wind speed in m/s (hover to see current wind gust speed)